Back to catalog

MOLNIYA 3-41

AliveCommunicationsHEO
NORAD 21706·PAYLOAD·🇷🇺 Russia

Launched Sep 17, 1991 from Plesetsk Cosmodrome

Loading…

Next Passes (next 24 hours)

TLE

FreshSource: Space-Track

Epoch: Sep 13, 2026, 22:49 UTC

1 21706U 91065A   26256.95134298  .00000796  00000-0  50385-3 0  9995
2 21706  62.6098 305.2239 7417988 254.1688  19.6056  2.04504481258539

Track MOLNIYA 3-41 in real time with AllMySat

Download on the App Store